Flag for United Kingdom Weather past 2 weeks in Dudley, England, United Kingdom

Now
46 °F

Overcast.


Feels Like: 42 °F
Forecast: 44 / 56 °F
Wind: 9 mph from South

Location: Birmingham / Airport

Current Time: May 6, 2015 at 3:23:47 AM

Latest Report: May 6, 2015 at 2:50 AM


Visibility: N/A

Pressure: 29.47 "Hg

Humidity: 87%

Dew point: 43 °F

Location of DudleyLocation

Historic Weather in Dudley — Graph

°F

Dudley temperature yesterday

Maximum temperature yesterday: 57 °F (at 7:20 AM)
Minimum temperature yesterday: 48 °F (at 6:50 PM)
Average temperature yesterday: 53 °F

Past Weeks' High & Low Weather Summary

 TemperatureHumidityPressure
High63 °F (Apr 21, 2:50 PM)100% (Apr 24, 6:20 AM)30.60 "Hg (Apr 24, 6:20 AM)
Low36 °F (Apr 27, 3:20 AM)28% (Apr 26, 5:20 PM)29.06 "Hg (May 5, 5:50 AM)
Average49 °F69%29.84 "Hg
* Reported Apr 21 2:20 AM — May 6 2:20 AM, Dudley, Weather by CustomWeather, © 2015

Note: Actual official high and low records may vary slightly from our data, if they occured in-between our weather recording intervals... More about our weather records

Advertising

Dudley weather history for previous 24 hours

 ConditionsComfort  
Time TempWeatherWind HumidityBarometerVisibility
2:20 AM
Wed, May 6
46 °FPassing clouds.9 mph87%29.47 "HgN/A
1:50 AM46 °FPassing clouds.10 mph87%29.47 "HgN/A
1:20 AM48 °FPassing clouds.12 mph87%29.47 "HgN/A
12:50 AM48 °FPassing clouds.9 mph87%29.45 "HgN/A
12:20 AM48 °FPassing clouds.9 mph87%29.45 "HgN/A
11:50 PM
Tue, May 5
48 °FPassing clouds.10 mph82%29.45 "HgN/A
11:20 PM48 °FPassing clouds.12 mph87%29.45 "HgN/A
10:50 PM48 °FPassing clouds.9 mph82%29.45 "HgN/A
10:20 PM48 °FPassing clouds.13 mph82%29.45 "HgN/A
9:50 PM48 °FPassing clouds.13 mph82%29.42 "HgN/A
9:20 PM50 °FScattered clouds.14 mph82%29.42 "HgN/A
8:50 PM50 °FScattered clouds.13 mph82%29.39 "HgN/A
8:20 PM50 °FScattered showers. Scattered clouds.14 mph82%29.39 "HgN/A
7:50 PM50 °FScattered showers. Scattered clouds.14 mph82%29.39 "HgN/A
7:20 PM50 °FRain showers. Scattered clouds.12 mph82%29.39 "HgN/A
6:50 PM48 °FMixture of precip. Partly sunny.15 mph87%29.39 "HgN/A
6:20 PM54 °FScattered showers. Partly sunny.17 mph77%29.36 "HgN/A
5:50 PM54 °FBroken clouds.18 mph82%29.36 "HgN/A
5:20 PM54 °FMixture of precip. Broken clouds.15 mph77%29.36 "HgN/A
4:50 PM54 °FRain showers. Partly sunny.12 mph77%29.36 "Hg4 mi
4:20 PM54 °FRain showers. Partly sunny.17 mph77%29.36 "HgN/A
3:50 PM57 °FSprinkles. Broken clouds.20 mph59%29.36 "HgN/A
3:20 PM57 °FBroken clouds.16 mph59%29.33 "HgN/A
2:50 PM55 °FBroken clouds.17 mph63%29.33 "HgN/A
2:20 PM55 °FBroken clouds.17 mph59%29.33 "HgN/A
1:50 PM55 °FPartly sunny.20 mph59%29.33 "HgN/A
1:20 PM55 °FScattered clouds.17 mph55%29.33 "HgN/A
12:50 PM55 °FScattered clouds.20 mph51%29.30 "HgN/A
12:20 PM54 °FScattered clouds.15 mph63%29.30 "HgN/A
11:50 AM54 °FScattered clouds.16 mph67%29.27 "HgN/A
11:20 AM52 °FScattered clouds.16 mph72%29.24 "HgN/A
10:50 AM52 °FBroken clouds.14 mph72%29.21 "HgN/A
10:20 AM52 °FBroken clouds.20 mph77%29.18 "HgN/A
9:50 AM57 °FScattered showers. Scattered clouds.13 mph77%29.12 "HgN/A
9:20 AM55 °FScattered showers. Partly sunny.15 mph88%29.09 "Hg6 mi
8:50 AM55 °FDrizzle. Mostly cloudy.9 mph94%29.09 "Hg2 mi
8:20 AM55 °FPartly sunny.9 mph88%29.06 "HgN/A
7:50 AM57 °FPartly sunny.9 mph88%29.06 "HgN/A
7:20 AM57 °FBroken clouds.9 mph88%29.06 "HgN/A
6:50 AM55 °FBroken clouds.8 mph94%29.09 "HgN/A
6:20 AM55 °FPartly cloudy.9 mph94%29.09 "HgN/A
5:50 AM55 °FPassing clouds.7 mph94%29.06 "Hg4 mi
5:20 AM55 °FPartly cloudy.8 mph94%29.09 "Hg4 mi
4:20 AM54 °FDrizzle. Mostly cloudy.12 mph94%29.12 "Hg1 mi
3:50 AM54 °FDrizzle. Mostly cloudy.13 mph94%29.12 "Hg2 mi
3:20 AM52 °FDrizzle. Mostly cloudy.10 mph100%29.15 "Hg2 mi
Weather by CustomWeather, © 2015

See weather overviewHow to use our weather pages